Terminal Aerodrome Forecast
Issued by NWS

Current Version | Previous Version | Graphics & Text | Print | Product List | Glossary On
Versions: 1 2 3 4 5 6 7 8 9 10 11 12 13 14 15 16 17
000
FTUS41 KPBZ 220542
TAFHLG
TAF
KHLG 220542Z 2206/2306 20003KT P6SM OVC080
     FM221200 20005KT P6SM SCT025 BKN035
     FM230000 20005KT P6SM BKN015=

USA.gov is the U.S. government's official web portal to all federal, state and local government web resources and services.